Location: Peterborough
(44.3091°N, 78.3197°W)
Time: 03:22:49
(UTC-04:00)

A-11 Canister half - Pass Details

Date: 28 March 2023
Orbit: 1513 x 1686 km, 47.2° (Epoch: 08 June)

Event Time Altitude Azimuth Distance (km) Brightness Sun altitude
Rises 02:22:48 0° 287° (WNW) 4,893 11.6 -40.6°
Reaches altitude 10° 02:25:56 10° 288° (WNW) 3,921 11.1 -40.4°
Enters shadow 02:26:38 13° 288° (WNW) 3,704 10.9 -40.4°
Exits shadow 02:39:28 50° 109° (ESE) 2,063 9.5 -39.4°
Drops below altitude 10° 02:46:20 10° 111° (ESE) 3,939 11.2 -38.9°
Sets 02:49:28 0° 111° (ESE) 4,917 11.7 -38.6°
